This is the latest recevied weather packets stored in our database for station/object DO7ZT-13. If no packets are shown the sender has not sent any weather packets the latest 10 day(s).
| Time | Temp. | Humidity | Pressure | Rain* | Wind** | Luminosity | Snow |
|---|---|---|---|---|---|---|---|
| 1778023213 | 12.22° C | 95% | 1007 hPa | 5.59 mm | 0.45 m/s, 258° | - | - |
| 1778022925 | 12.78° C | 95% | 1007.3 hPa | 4.83 mm | 0.89 m/s, 264° | - | - |
| 1778022613 | 12.78° C | 94% | 1007.3 hPa | 4.06 mm | 0.45 m/s, 276° | - | - |
| 1778022325 | 12.78° C | 94% | 1007.3 hPa | 2.79 mm | 0.89 m/s, 268° | - | - |
| 1778022013 | 12.78° C | 92% | 1006.9 hPa | 1.27 mm | 0.89 m/s, 256° | - | - |
| 1778021726 | 12.78° C | 88% | 1006.9 hPa | 1.02 mm | 0.89 m/s, 258° | - | - |
| 1778021413 | 12.78° C | 87% | 1006.9 hPa | 0.51 mm | 0.89 m/s, 166° | - | - |
| 1778021125 | 13.89° C | 86% | 1006.5 hPa | 0 mm | 0.45 m/s, 177° | - | - |
| 1778020812 | 13.89° C | 86% | 1006.5 hPa | 0 mm | 0.45 m/s, 167° | - | - |
| 1778020525 | 13.89° C | 86% | 1006.5 hPa | 0 mm | 0 m/s | - | - |
| 1778020213 | 13.89° C | 85% | 1006 hPa | 0 mm | 0.45 m/s, 264° | - | - |
| 1778019925 | 13.89° C | 84% | 1006 hPa | 0 mm | 0.45 m/s, 84° | - | - |
| 1778019612 | 13.89° C | 84% | 1006 hPa | 0 mm | 0.45 m/s, 150° | - | - |
| 1778019338 | 13.89° C | 84% | 1005.7 hPa | 0 mm | 1.34 m/s, 77° | - | - |
| 1778019025 | 13.89° C | 85% | 1005.7 hPa | 0 mm | 0.45 m/s, 66° | - | - |
| 1778018711 | 13.89° C | 84% | 1005.7 hPa | 0 mm | 0.89 m/s, 44° | - | - |
| 1778018424 | 13.89° C | 84% | 1005.9 hPa | 0 mm | 0.45 m/s, 54° | - | - |
| 1778018112 | 13.89° C | 82% | 1005.9 hPa | 0 mm | 0.89 m/s, 54° | - | - |
| 1778017824 | 13.89° C | 82% | 1005.9 hPa | 0 mm | 0 m/s | - | - |
| 1778017511 | 13.89° C | 82% | 1005.9 hPa | 0 mm | 0 m/s | - | - |
| 1778017223 | 13.89° C | 81% | 1005.9 hPa | 0 mm | 0.45 m/s, 72° | - | - |
| 1778016911 | 13.89° C | 80% | 1005.9 hPa | 0 mm | 0.45 m/s, 66° | - | - |
| 1778016623 | 13.89° C | 81% | 1005.7 hPa | 0 mm | 0.45 m/s, 12° | - | - |
| 1778016311 | 13.89° C | 80% | 1005.7 hPa | 0 mm | 0.45 m/s, 336° | - | - |
| 1778016023 | 13.89° C | 80% | 1005.7 hPa | 0 mm | 0.45 m/s, 330° | - | - |
* Rain latest hour (hover to see other rain measurements)
** Current wind speed in m/s (hover to see current wind gust speed)